Location: Fort Wayne
(41.1310°N, 85.1290°W)
Time: 10:37:09
(UTC-04:00)

Cosmos 1980 - Visible Passes

Search period start: 24 July 2017 00:00
Search period end: 03 August 2017 00:00
Orbit: 838 x 849 km, 71.0° (Epoch: 23 July)

Date Brightness Start Highest point End Pass type
(mag) Time Alt. Az. Time Alt. Az. Time Alt. Az.
24 Jul 4.1 05:29:29 10° S 05:35:05 67° ESE 05:40:44 10° NNE visible
25 Jul 4.1 05:14:57 10° S 05:20:33 64° ESE 05:26:11 10° NNE visible
26 Jul 4.1 05:00:57 13° S 05:06:00 61° ESE 05:11:36 10° NNE visible
27 Jul 4.2 04:47:11 17° S 04:51:27 58° ESE 04:57:03 10° NNE visible
28 Jul 4.2 04:33:22 22° S 04:36:55 56° ESE 04:42:28 10° NNE visible
29 Jul 4.2 04:19:29 27° S 04:22:22 53° ESE 04:27:54 10° NNE visible
29 Jul 5.1 06:02:14 10° WSW 06:06:47 24° NW 06:11:21 10° N visible
30 Jul 4.3 04:05:34 32° SSE 04:07:50 51° ESE 04:13:20 10° NNE visible
30 Jul 5.0 05:47:35 10° WSW 05:52:12 25° NW 05:56:51 10° N visible
31 Jul 4.3 03:51:38 37° SSE 03:53:18 48° ESE 03:58:45 10° NE visible
31 Jul 5.0 05:33:29 12° WSW 05:37:37 26° NW 05:42:21 10° N visible
01 Aug 4.3 03:37:38 41° SE 03:38:46 46° ESE 03:44:11 10° NE visible
01 Aug 5.0 05:19:30 15° WSW 05:23:03 27° NW 05:27:51 10° N visible
02 Aug 4.3 03:23:37 43° SE 03:24:14 44° ESE 03:29:37 10° NE visible
02 Aug 4.9 05:05:28 18° W 05:08:28 28° NW 05:13:20 10° N visible
